Location: Lussas
(44.6119°N, 4.4726°E)
Time: 06:32:21
(UTC+00:00)

NOSS 3-2 (A) - Pass Details

Date: 26 November 2020
Orbit: 791 x 1417 km, 63.4° (Epoch: 20 December)

Event Time Altitude Azimuth Distance (km) Brightness Sun altitude
Exits shadow 04:50:26 34° 286° (WNW) 1,974 4.5 -21.4°
Maximum altitude 04:53:08 45° 243° (WSW) 1,738 4.4 -20.9°
Drops below altitude 10° 05:01:06 10° 175° (S) 3,468 6.5 -19.5°
Sets 05:04:14 0° 169° (S) 4,467 7.2 -19.0°
